Location: LDNL
(36.4545°S, 141.6685°E)
Time: 04:59:53
(UTC+11:00)

Vanguard 2 - Pass Details

Date: 14 August 2022
Orbit: 552 x 2934 km, 32.9° (Epoch: 06 October)

Event Time Altitude Azimuth Distance (km) Brightness Sun altitude
Rises 22:01:20 0° 260° (W) 5,810 12.7 -48.7°
Reaches altitude 10° 22:05:58 10° 265° (W) 4,416 11.8 -49.5°
Enters shadow 22:12:08 29° 284° (WNW) 2,608 10.3 -50.6°
Maximum altitude 22:16:10 42° 330° (NNW) 1,850 - -51.4°
Drops below altitude 10° 22:22:29 10° 39° (NE) 2,742 - -52.5°
Sets 22:24:43 0° 46° (NE) 3,458 - -52.9°
